�N����,����,�~����,�C��,���x,�C��,����,���ϕ���,�ő�u�ԕ���,�ő厞����,���˗�,�I�_���x,�n�����x,�ő啗���N��,DTYPE
"20/08/16","00:10",0.0,27.3,81.0,1004.1,319.6,0.6,1.6,336.5,0.00,23.8,28.8,"00:08:24",1
"20/08/16","00:20",0.0,27.2,81.6,1004.3,269.5,0.8,1.1,254.0,0.00,23.8,28.8,"00:16:56",1
"20/08/16","00:30",0.0,27.1,82.0,1004.5,278.8,0.7,1.7,244.1,0.00,23.8,28.4,"00:20:16",1
"20/08/16","00:40",0.0,27.0,82.3,1004.5,283.1,0.6,1.7,306.9,0.00,23.8,28.7,"00:38:32",1
"20/08/16","00:50",0.0,26.8,82.7,1004.5,296.2,0.6,1.1,323.7,0.00,23.6,28.4,"00:42:32",1
"20/08/16","01:00",0.0,26.7,83.1,1004.3,282.0,0.1,0.5,317.8,0.00,23.6,28.6,"00:54:48",1
"20/08/16","01:10",0.0,26.5,83.5,1004.8,305.2,0.5,1.4,329.2,0.00,23.5,28.4,"01:09:28",1
"20/08/16","01:20",0.0,26.5,83.8,1004.1,309.2,0.7,1.6,343.8,0.00,23.6,28.5,"01:14:48",1
"20/08/16","01:30",0.0,26.3,84.1,1004.5,297.0,0.6,1.0,311.1,0.00,23.4,28.3,"01:22:16",1
"20/08/16","01:40",0.0,26.2,84.4,1004.8,305.7,0.6,1.6,341.4,0.00,23.4,28.2,"01:39:52",1
"20/08/16","01:50",0.0,26.3,84.8,1004.8,323.3,1.1,2.0,338.8,0.00,23.6,28.3,"01:44:32",1
"20/08/16","02:00",0.0,26.3,85.1,1004.8,308.2,1.3,2.0,321.9,0.00,23.6,28.3,"01:59:20",1
"20/08/16","02:10",0.0,26.3,85.2,1004.8,330.2,1.6,2.4,332.1,0.00,23.7,28.1,"02:03:52",1
"20/08/16","02:20",0.0,26.2,85.4,1004.8,335.4,0.8,1.4,331.0,0.00,23.6,28.1,"02:10:16",1
"20/08/16","02:30",0.0,26.1,85.6,1004.8,326.2,0.8,1.7,341.9,0.00,23.5,28.0,"02:24:24",1
"20/08/16","02:40",0.0,26.1,85.8,1004.8,340.8,1.1,1.7,9.8,0.00,23.6,27.9,"02:36:08",1
"20/08/16","02:50",0.0,26.1,85.9,1005.0,343.5,1.0,2.0,342.7,0.00,23.6,28.0,"02:43:28",1
"20/08/16","03:00",0.0,26.1,86.0,1004.5,335.7,1.1,1.8,343.4,0.00,23.6,27.8,"02:56:16",1
"20/08/16","03:10",0.0,26.0,86.2,1005.0,325.7,1.1,1.8,308.6,0.00,23.6,28.0,"03:02:40",1
"20/08/16","03:20",0.0,25.8,86.3,1005.0,322.5,0.7,1.6,329.6,0.00,23.4,27.8,"03:10:48",1
"20/08/16","03:30",0.0,25.9,86.6,1005.5,331.8,1.0,1.8,344.9,0.00,23.5,27.7,"03:24:48",1
"20/08/16","03:40",0.0,25.8,86.8,1005.5,332.9,0.8,1.9,337.0,0.00,23.5,27.7,"03:32:32",1
"20/08/16","03:50",0.0,25.8,86.9,1005.0,344.1,1.0,1.9,348.0,0.00,23.5,27.8,"03:49:04",1
"20/08/16","04:00",0.0,25.7,87.1,1004.5,336.0,1.2,2.0,340.9,0.00,23.4,27.6,"03:54:40",1
"20/08/16","04:10",0.0,25.8,87.3,1005.0,336.3,1.3,2.6,342.5,0.00,23.6,27.7,"04:01:36",1
"20/08/16","04:20",0.0,25.9,87.5,1004.8,341.8,1.3,3.1,348.6,0.00,23.7,27.5,"04:12:16",1
"20/08/16","04:30",0.0,25.7,87.7,1005.0,341.6,1.2,2.1,341.3,0.00,23.5,27.5,"04:20:16",1
"20/08/16","04:40",0.0,25.6,87.8,1005.0,342.9,1.2,2.1,328.8,0.00,23.5,27.6,"04:33:44",1
"20/08/16","04:50",0.0,25.8,88.1,1005.5,341.5,1.6,3.5,322.7,0.00,23.7,27.2,"04:48:56",1
"20/08/16","05:00",0.0,25.7,88.3,1005.5,332.8,1.3,3.2,350.8,0.00,23.7,27.3,"04:59:44",1
"20/08/16","05:10",0.0,25.7,88.3,1005.7,339.9,1.7,3.4,338.3,0.00,23.7,27.2,"05:02:16",1
"20/08/16","05:20",0.0,25.5,88.3,1005.5,338.1,1.5,2.9,327.8,0.00,23.5,27.3,"05:16:16",1
"20/08/16","05:30",0.0,25.7,88.6,1005.5,331.7,1.5,3.1,340.6,0.00,23.7,27.2,"05:20:48",1
"20/08/16","05:40",0.0,25.8,88.5,1005.7,337.2,1.7,3.5,343.2,0.00,23.8,27.2,"05:32:00",1
"20/08/16","05:50",0.0,25.6,88.6,1005.7,340.9,1.3,2.6,341.4,0.00,23.6,27.1,"05:48:00",1
"20/08/16","06:00",0.0,25.7,88.7,1005.7,346.7,1.1,2.4,344.3,0.00,23.7,27.1,"05:53:44",1
"20/08/16","06:10",0.0,26.0,88.8,1005.5,334.9,1.2,2.8,337.6,0.00,24.0,27.2,"06:06:56",1
"20/08/16","06:20",0.0,26.3,88.4,1005.7,323.8,1.7,3.1,338.5,0.01,24.3,27.1,"06:10:08",1
"20/08/16","06:30",0.0,26.7,87.9,1005.5,335.2,1.6,3.5,344.8,0.03,24.6,27.1,"06:21:20",1
"20/08/16","06:40",0.0,27.0,87.0,1005.7,337.2,1.6,2.8,343.1,0.04,24.7,26.9,"06:35:12",1
"20/08/16","06:50",0.0,27.6,86.0,1005.5,345.4,1.5,3.3,338.4,0.06,25.1,27.3,"06:42:00",1
"20/08/16","07:00",0.0,28.2,84.6,1005.5,335.0,0.7,2.2,357.2,0.08,25.4,27.2,"06:55:04",1
"20/08/16","07:10",0.0,28.8,82.2,1005.5,355.4,1.0,2.0,346.2,0.10,25.5,27.4,"07:06:08",1
"20/08/16","07:20",0.0,29.2,79.8,1005.0,348.3,1.0,2.4,314.5,0.12,25.4,27.5,"07:16:40",1
"20/08/16","07:30",0.0,29.8,77.5,1005.5,352.3,1.0,3.2,343.0,0.14,25.5,27.7,"07:22:00",1
"20/08/16","07:40",0.0,30.2,74.5,1005.5,18.8,0.8,1.9,340.8,0.17,25.2,27.7,"07:32:40",1
"20/08/16","07:50",0.0,31.0,71.7,1006.0,36.6,0.5,1.9,70.7,0.19,25.3,27.9,"07:48:24",1
"20/08/16","08:00",0.0,31.6,68.6,1006.7,65.3,0.7,1.4,10.8,0.22,25.2,28.0,"07:51:44",1
"20/08/16","08:10",0.0,31.9,67.2,1006.7,40.2,0.6,1.7,13.3,0.24,25.1,28.3,"08:05:36",1
"20/08/16","08:20",0.0,32.5,65.9,1007.4,69.1,0.6,1.4,28.3,0.26,25.3,28.4,"08:14:08",1
"20/08/16","08:30",0.0,32.9,64.7,1007.6,61.1,0.5,2.1,13.4,0.29,25.4,28.4,"08:24:00",1
"20/08/16","08:40",0.0,32.9,63.6,1007.6,88.5,0.8,1.7,76.8,0.31,25.1,28.6,"08:30:40",1
"20/08/16","08:50",0.0,33.0,63.3,1007.8,82.5,0.8,1.8,12.9,0.33,25.1,28.9,"08:45:04",1
"20/08/16","09:00",0.0,33.3,64.2,1007.8,136.6,0.8,1.9,201.8,0.35,25.7,29.3,"08:50:08",1
"20/08/16","09:10",0.0,33.5,62.5,1008.1,186.8,0.8,3.1,210.3,0.37,25.4,29.2,"09:05:28",1
"20/08/16","09:20",0.0,33.9,61.8,1008.3,206.6,0.8,2.1,223.4,0.39,25.6,29.5,"09:11:12",1
"20/08/16","09:30",0.0,34.6,61.4,1008.3,112.4,0.6,1.4,337.5,0.41,26.1,30.0,"09:22:24",1
"20/08/16","09:40",0.0,34.9,59.2,1008.6,178.3,0.7,1.9,229.5,0.43,25.8,30.2,"09:34:24",1
"20/08/16","09:50",0.0,34.9,57.9,1008.6,288.7,0.8,2.6,348.5,0.45,25.4,30.4,"09:40:16",1
"20/08/16","10:00",0.0,34.5,58.7,1008.1,252.9,1.5,3.1,228.2,0.47,25.3,30.7,"09:55:04",1
"20/08/16","10:10",0.0,35.1,58.7,1008.3,214.4,1.1,3.1,230.4,0.47,25.8,30.8,"10:03:20",1
"20/08/16","10:20",0.0,35.2,55.5,1007.8,227.4,1.1,2.7,220.8,0.39,25.0,31.2,"10:10:32",1
"20/08/16","10:30",0.0,35.0,56.2,1008.3,290.3,0.7,2.1,337.3,0.31,25.0,31.2,"10:28:48",1
"20/08/16","10:40",0.0,35.1,56.4,1007.6,259.6,1.3,4.5,229.6,0.37,25.2,31.3,"10:37:44",1
"20/08/16","10:50",0.0,35.0,57.2,1007.4,265.6,0.7,2.0,335.0,0.34,25.3,31.4,"10:47:12",1
"20/08/16","11:00",0.0,34.9,57.3,1007.4,317.7,1.1,3.9,341.1,0.31,25.2,31.7,"10:54:00",1
"20/08/16","11:10",0.0,35.1,56.7,1006.9,272.4,0.8,2.2,226.6,0.35,25.2,31.6,"11:05:28",1
"20/08/16","11:20",0.0,35.8,54.6,1007.4,281.5,0.8,2.4,356.3,0.34,25.3,31.7,"11:19:12",1
"20/08/16","11:30",0.0,36.1,53.4,1007.4,332.3,1.0,2.8,332.1,0.43,25.2,32.3,"11:29:36",1
"20/08/16","11:40",0.0,36.4,53.2,1006.9,319.1,1.3,3.2,0.7,0.57,25.4,32.2,"11:34:56",1
"20/08/16","11:50",0.0,36.5,53.4,1007.1,292.3,1.2,3.4,242.1,0.49,25.5,32.4,"11:46:24",1
"20/08/16","12:00",0.0,35.8,53.3,1007.1,302.7,1.3,3.4,223.5,0.30,24.9,32.7,"11:51:44",1
"20/08/16","12:10",0.0,36.0,53.4,1006.9,358.2,1.6,3.3,10.3,0.42,25.1,32.6,"12:07:52",1
"20/08/16","12:20",0.0,35.5,53.1,1006.7,28.7,1.1,2.9,357.0,0.17,24.5,32.6,"12:13:12",1
"20/08/16","12:30",0.0,35.8,53.4,1006.4,11.6,1.5,4.0,1.0,0.41,24.9,32.6,"12:29:12",1
"20/08/16","12:40",0.0,36.4,51.3,1006.7,289.5,0.8,2.1,326.2,0.35,24.8,32.9,"12:37:12",1
"20/08/16","12:50",0.0,37.2,49.8,1006.9,327.1,1.0,2.5,295.0,0.52,25.0,33.2,"12:45:20",1
"20/08/16","13:00",0.0,36.5,50.0,1006.9,355.1,1.5,2.9,358.4,0.34,24.4,32.9,"12:51:12",1
"20/08/16","13:10",0.0,36.3,50.4,1006.7,344.5,1.6,5.9,341.1,0.31,24.4,33.0,"13:06:16",1
"20/08/16","13:20",0.0,35.8,50.7,1006.7,13.3,1.3,3.5,347.8,0.14,24.0,33.2,"13:11:52",1
"20/08/16","13:30",0.0,35.1,52.3,1006.7,8.8,1.8,5.9,13.5,0.12,23.9,33.0,"13:21:04",1
"20/08/16","13:40",0.0,35.3,53.4,1006.0,0.8,1.5,3.9,45.1,0.20,24.4,32.9,"13:32:48",1
"20/08/16","13:50",0.0,35.4,50.4,1006.0,342.6,2.8,5.9,345.0,0.38,23.6,32.6,"13:43:20",1
"20/08/16","14:00",0.0,36.3,48.3,1006.0,324.0,2.7,5.9,331.2,0.54,23.7,32.7,"13:51:44",1
"20/08/16","14:10",0.0,36.9,47.9,1006.4,313.5,2.3,7.2,338.6,0.51,24.1,33.0,"14:06:48",1
"20/08/16","14:20",0.0,37.5,46.3,1006.4,353.7,1.7,5.9,348.8,0.51,24.1,33.1,"14:17:12",1
"20/08/16","14:30",0.0,36.5,48.4,1006.2,352.6,2.3,5.9,330.7,0.38,23.9,33.0,"14:20:08",1
"20/08/16","14:40",0.0,36.3,48.3,1006.2,343.1,2.7,5.6,332.7,0.40,23.7,33.0,"14:36:32",1
"20/08/16","14:50",0.0,35.9,49.6,1006.0,340.1,2.2,3.7,333.6,0.29,23.8,33.0,"14:49:20",1
"20/08/16","15:00",0.0,36.3,49.6,1005.7,1.7,2.2,4.9,38.2,0.39,24.1,33.1,"14:52:24",1
"20/08/16","15:10",0.0,36.8,49.3,1006.0,351.3,1.5,4.9,27.0,0.34,24.5,33.1,"15:05:12",1
"20/08/16","15:20",0.0,36.7,49.3,1006.0,357.4,2.1,4.7,339.8,0.35,24.4,33.2,"15:13:52",1
"20/08/16","15:30",0.0,36.5,49.8,1006.0,1.4,2.2,5.5,338.7,0.35,24.4,32.9,"15:21:44",1
"20/08/16","15:40",0.0,36.5,49.5,1005.7,15.6,2.1,4.2,329.1,0.33,24.3,33.2,"15:34:08",1
"20/08/16","15:50",0.0,36.6,49.1,1005.7,355.6,1.8,4.0,328.3,0.31,24.2,33.1,"15:40:40",1
"20/08/16","16:00",0.0,35.9,51.0,1005.5,9.3,2.1,4.9,351.3,0.23,24.2,33.2,"15:56:16",1
"20/08/16","16:10",0.0,35.9,50.4,1005.2,9.3,2.2,5.1,338.5,0.25,24.0,32.9,"16:04:24",1
"20/08/16","16:20",0.0,36.3,49.9,1005.5,339.5,1.5,3.4,340.7,0.24,24.2,33.0,"16:15:28",1
"20/08/16","16:30",0.0,36.5,49.9,1006.0,337.9,1.1,2.9,342.2,0.21,24.4,32.9,"16:26:40",1
"20/08/16","16:40",0.0,36.0,52.1,1005.5,351.2,1.8,4.1,344.7,0.19,24.7,32.7,"16:35:44",1
"20/08/16","16:50",0.0,35.9,51.2,1005.5,8.9,1.5,3.1,344.0,0.16,24.3,32.6,"16:43:28",1
"20/08/16","17:00",0.0,35.7,51.2,1005.5,2.5,1.5,2.9,349.7,0.14,24.1,32.6,"16:55:12",1
"20/08/16","17:10",0.0,35.5,51.5,1005.0,9.1,1.6,4.7,344.4,0.12,24.0,32.6,"17:08:56",1
"20/08/16","17:20",0.0,35.0,52.1,1004.8,0.5,1.8,4.1,337.6,0.09,23.7,32.4,"17:13:20",1
"20/08/16","17:30",0.0,35.3,53.0,1005.2,21.8,1.2,2.4,338.2,0.07,24.3,32.3,"17:23:04",1
"20/08/16","17:40",0.0,35.3,53.8,1005.0,18.3,1.0,2.4,50.1,0.05,24.6,32.2,"17:30:40",1
"20/08/16","17:50",0.0,34.8,55.4,1004.8,8.8,0.8,2.4,20.9,0.03,24.6,32.1,"17:42:08",1
"20/08/16","18:00",0.0,34.0,57.4,1004.8,357.8,1.0,2.4,31.3,0.00,24.4,32.2,"17:58:32",1
"20/08/16","18:10",0.0,33.5,59.1,1004.5,7.3,0.8,2.4,349.8,0.00,24.5,31.7,"18:00:16",1
"20/08/16","18:20",0.0,32.9,61.9,1004.1,353.5,0.6,1.7,352.6,0.00,24.7,31.9,"18:18:24",1
"20/08/16","18:30",0.0,32.1,64.1,1004.1,6.4,0.5,1.1,357.9,0.00,24.5,31.8,"18:25:36",1
"20/08/16","18:40",0.0,31.6,65.7,1004.1,1.6,0.6,1.2,339.4,0.00,24.4,31.5,"18:35:28",1
"20/08/16","18:50",0.0,31.0,67.8,1004.1,343.6,0.6,1.1,342.8,0.00,24.4,31.4,"18:40:16",1
"20/08/16","19:00",0.0,30.4,70.3,1003.8,342.1,0.8,1.4,335.5,0.00,24.4,31.3,"18:59:28",1
"20/08/16","19:10",0.0,30.1,71.6,1003.8,3.5,0.3,1.2,358.5,0.00,24.4,31.2,"19:07:12",1
"20/08/16","19:20",0.0,29.8,72.6,1003.4,0.8,0.6,1.3,22.3,0.00,24.4,30.8,"19:18:00",1
"20/08/16","19:30",0.0,29.6,73.4,1003.4,307.6,0.8,1.4,337.7,0.00,24.4,30.7,"19:21:12",1
"20/08/16","19:40",0.0,29.4,74.2,1003.6,263.0,0.6,1.1,240.4,0.00,24.4,30.7,"19:34:40",1
"20/08/16","19:50",0.0,29.3,74.4,1004.1,297.0,0.7,1.6,345.4,0.00,24.3,30.7,"19:48:08",1
"20/08/16","20:00",0.0,29.4,74.5,1004.3,349.7,0.8,1.9,335.7,0.00,24.4,30.7,"19:51:04",1
"20/08/16","20:10",0.0,29.3,74.7,1004.3,337.9,0.8,1.9,37.9,0.00,24.4,30.6,"20:01:04",1
"20/08/16","20:20",0.0,28.9,75.5,1004.3,282.1,1.0,2.0,316.5,0.00,24.2,30.1,"20:10:40",1
"20/08/16","20:30",0.0,28.8,76.1,1004.8,317.2,1.0,1.9,317.0,0.00,24.2,30.2,"20:20:32",1
"20/08/16","20:40",0.0,28.8,76.7,1004.8,336.6,1.0,2.4,343.5,0.00,24.3,30.1,"20:32:32",1
"20/08/16","20:50",0.0,28.6,77.0,1005.0,278.3,0.7,1.8,248.3,0.00,24.2,30.0,"20:43:52",1
"20/08/16","21:00",0.0,28.4,77.4,1005.2,269.8,1.1,2.0,253.8,0.00,24.1,29.9,"20:56:56",1
"20/08/16","21:10",0.0,28.4,77.7,1005.5,293.5,0.8,2.1,232.4,0.00,24.2,29.8,"21:00:48",1
"20/08/16","21:20",0.0,28.3,78.3,1005.5,353.8,0.6,1.6,343.5,0.00,24.2,29.6,"21:15:12",1
"20/08/16","21:30",0.0,28.0,79.0,1005.7,300.7,0.3,1.3,0.5,0.00,24.1,29.6,"21:28:32",1
"20/08/16","21:40",0.0,27.8,80.3,1005.7,343.1,1.1,1.8,315.6,0.00,24.1,29.4,"21:37:52",1
"20/08/16","21:50",0.0,27.2,81.5,1005.5,325.5,1.0,2.1,352.6,0.00,23.8,29.3,"21:40:16",1
"20/08/16","22:00",0.0,27.2,82.6,1005.2,331.9,1.2,2.2,331.4,0.00,24.0,29.4,"21:57:44",1
"20/08/16","22:10",0.0,27.3,82.8,1005.7,343.4,1.3,2.4,344.1,0.00,24.2,29.2,"22:05:36",1
"20/08/16","22:20",0.0,27.3,82.8,1005.5,338.0,1.5,2.8,336.0,0.00,24.2,29.0,"22:18:08",1
"20/08/16","22:30",0.0,27.3,82.8,1005.7,311.2,1.2,2.5,324.2,0.00,24.2,28.9,"22:24:56",1
"20/08/16","22:40",0.0,27.1,82.8,1005.7,301.2,0.6,1.4,316.3,0.00,24.0,28.9,"22:30:40",1
"20/08/16","22:50",0.0,27.2,82.8,1005.7,331.7,1.7,3.5,343.0,0.00,24.1,28.7,"22:42:40",1
"20/08/16","23:00",0.0,27.1,82.6,1005.7,311.7,1.1,2.0,324.6,0.00,23.9,28.6,"22:59:04",1
"20/08/16","23:10",0.0,27.0,82.6,1005.5,299.8,1.1,2.2,335.5,0.00,23.8,28.6,"23:06:04",1
"20/08/16","23:20",0.0,27.2,82.3,1005.7,320.0,2.0,3.3,346.6,0.00,24.0,28.5,"23:13:44",1
"20/08/16","23:30",0.0,27.4,81.6,1005.7,332.1,1.8,3.3,333.6,0.00,24.0,28.5,"23:28:08",1
"20/08/16","23:40",0.0,27.4,81.2,1005.7,339.4,1.8,3.7,339.8,0.00,23.9,28.5,"23:30:32",1
"20/08/16","23:50",0.0,27.2,81.4,1005.7,336.0,2.0,3.4,326.2,0.00,23.8,28.4,"23:42:40",1
"20/08/16","24:00",0.0,27.0,81.9,1006.0,333.6,1.5,2.4,348.8,0.00,23.7,28.5,"23:51:44",1
